TimeHST,TemperatureF,Dew PointF,Humidity,Sea Level PressureIn,VisibilityMPH,Wind Direction,Wind SpeedMPH,Gust SpeedMPH,PrecipitationIn,Events,Conditions,WindDirDegrees,DateUTC
12:54 AM,72.0,72.0,100,30.11,10.0,NE,12.7,-,0.00,Rain,Light Rain,50,2012-11-09 10:54:00
1:54 AM,71.1,70.0,96,30.09,10.0,NE,12.7,-,0.00,,Partly Cloudy,50,2012-11-09 11:54:00
2:54 AM,71.1,71.1,100,30.07,10.0,NE,9.2,-,0.00,,Scattered Clouds,50,2012-11-09 12:54:00
3:54 AM,-9999,-9999,N/A,30.07,10.0,NE,9.2,-,0.00,Rain,Light Rain,50,2012-11-09 13:54:00
4:54 AM,-9999,-9999,N/A,30.07,10.0,NE,9.2,-,0.00,,Clear,50,2012-11-09 14:54:00
5:54 AM,71.6,68.0,88,30.08,10.0,ENE,9.2,-,0.00,Rain,Light Rain,60,2012-11-09 15:54:00
6:54 AM,-9999,-9999,N/A,30.10,10.0,ENE,12.7,-,0.00,,Partly Cloudy,60,2012-11-09 16:54:00
7:54 AM,73.4,68.0,83,30.12,10.0,NE,10.4,-,0.00,,Scattered Clouds,50,2012-11-09 17:54:00
8:54 AM,77.0,73.0,88,30.14,10.0,ENE,13.8,-,N/A,,Scattered Clouds,60,2012-11-09 18:54:00
9:54 AM,80.1,71.1,74,30.13,10.0,ENE,15.0,23.0,N/A,,Scattered Clouds,60,2012-11-09 19:54:00
10:54 AM,82.9,70.0,65,30.11,10.0,NE,13.8,-,N/A,,Partly Cloudy,50,2012-11-09 20:54:00
11:54 AM,84.0,70.0,63,30.07,10.0,NE,24.2,29.9,N/A,,Partly Cloudy,50,2012-11-09 21:54:00
12:54 PM,82.9,69.1,63,30.05,10.0,ENE,23.0,29.9,N/A,,Partly Cloudy,60,2012-11-09 22:54:00
1:54 PM,82.9,69.1,63,30.03,10.0,NE,20.7,27.6,N/A,,Scattered Clouds,50,2012-11-09 23:54:00
2:54 PM,81.0,72.0,74,30.03,10.0,ENE,20.7,29.9,N/A,,Scattered Clouds,70,2012-11-10 00:54:00
3:54 PM,81.0,70.0,69,30.03,10.0,NE,17.3,27.6,N/A,,Scattered Clouds,50,2012-11-10 01:54:00
4:54 PM,79.0,70.0,74,30.04,10.0,NE,15.0,-,N/A,,Scattered Clouds,50,2012-11-10 02:54:00
5:54 PM,75.9,71.1,85,30.05,10.0,ENE,13.8,23.0,0.00,,Partly Cloudy,60,2012-11-10 03:54:00
6:54 PM,73.9,70.0,87,30.07,10.0,ENE,8.1,-,0.00,,Mostly Cloudy,60,2012-11-10 04:54:00
7:54 PM,73.9,71.1,91,30.09,10.0,ENE,8.1,-,N/A,,Partly Cloudy,60,2012-11-10 05:54:00
8:54 PM,73.0,70.0,90,30.10,10.0,NE,9.2,-,N/A,,Partly Cloudy,50,2012-11-10 06:54:00
9:54 PM,73.9,69.1,85,30.10,10.0,NE,12.7,-,N/A,,Clear,50,2012-11-10 07:54:00
10:54 PM,73.0,69.1,87,30.09,10.0,ENE,12.7,-,0.00,Rain,Light Rain,60,2012-11-10 08:54:00
11:54 PM,72.0,70.0,93,30.10,10.0,NE,6.9,-,0.00,,Clear,40,2012-11-10 09:54:00